Menu Close Menu
Station Historical Data
Daily Summary for October 30, 2017 Units:  English    Metric   Both
« Previous Day
Next Day »
Daily Weekly Monthly Yearly Custom
  High: Low: Average:
Temperature: 62.2 °F 31.0 °F 45 °F
Dew Point: 43.6 °F 28.1 °F 35.1 °F
Humidity: 90% 37% 71%
Wind Speed: 5.1mph 0.0mph 0.4mph
Wind Gust: 5.1mph - -
Wind- - WSW
Pressure: 30.12 in 29.95 in -
Precipitation: 0.00 in    
Historical Graphs
 
 
Tabular Data for October 30, 2017
Time Temperature Dew Point Pressure Wind Wind Speed Wind Gust Humidity Rainfall Rate (Hourly) solar Conditions
00:01 33.5 °F 29.8 °F 29.95 in Calm     86% 0.00 in WeatherDisplay:10.37 W/m2 CLR
00:06 33.4 °F 29.7 °F 29.95 in Calm     86% 0.00 in WeatherDisplay:10.37 W/m2 CLR
00:11 33.5 °F 29.5 °F 29.95 in Calm     85% 0.00 in WeatherDisplay:10.37 W/m2 CLR
00:16 33.5 °F 29.5 °F 29.95 in Calm     85% 0.00 in WeatherDisplay:10.37 W/m2 CLR
00:22 33.5 °F 29.5 °F 29.95 in Calm     85% 0.00 in WeatherDisplay:10.37 W/m2 CLR
00:27 33.5 °F 29.5 °F 29.95 in Calm     85% 0.00 in WeatherDisplay:10.37 W/m2 CLR
00:32 33.5 °F 29.5 °F 29.96 in Calm     85% 0.00 in WeatherDisplay:10.37 W/m2 CLR
00:37 33.5 °F 29.5 °F 29.96 in Calm   0.1 mph 85% 0.00 in WeatherDisplay:10.37 W/m2 CLR
00:42 33.6 °F 29.6 °F 29.96 in Calm     85% 0.00 in WeatherDisplay:10.37 W/m2 CLR
00:47 33.6 °F 29.3 °F 29.96 in Calm     84% 0.00 in WeatherDisplay:10.37 W/m2 CLR
00:52 33.7 °F 29.4 °F 29.96 in West 1.2 mph   84% 0.00 in WeatherDisplay:10.37 W/m2 CLR
00:57 33.8 °F 29.5 °F 29.96 in Calm     84% 0.00 in WeatherDisplay:10.37 W/m2 CLR
01:02 33.9 °F 29.6 °F 29.96 in West 1.2 mph   84% 0.00 in WeatherDisplay:10.37 W/m2 CLR
01:07 33.9 °F 29.6 °F 29.96 in Calm     84% 0.00 in WeatherDisplay:10.37 W/m2 CLR
01:12 33.9 °F 29.6 °F 29.96 in Calm     84% 0.00 in WeatherDisplay:10.37 W/m2 CLR
01:17 33.9 °F 29.6 °F 29.97 in WNW 1.2 mph   84% 0.00 in WeatherDisplay:10.37 W/m2 CLR
01:22 33.8 °F 29.2 °F 29.97 in West 1.2 mph 1.2 mph 83% 0.00 in WeatherDisplay:10.37 W/m2 CLR
01:28 33.8 °F 29.2 °F 29.97 in Calm     83% 0.00 in WeatherDisplay:10.37 W/m2 CLR
01:33 33.8 °F 29.5 °F 29.97 in West 1.2 mph   84% 0.00 in WeatherDisplay:10.37 W/m2 CLR
01:38 33.8 °F 29.2 °F 29.97 in Calm     83% 0.00 in WeatherDisplay:10.37 W/m2 CLR
01:43 33.7 °F 29.1 °F 29.97 in Calm     83% 0.00 in WeatherDisplay:10.37 W/m2 CLR
01:48 33.7 °F 29.4 °F 29.97 in West 1.2 mph   84% 0.00 in WeatherDisplay:10.37 W/m2 CLR
01:53 33.7 °F 29.4 °F 29.97 in WNW 1.2 mph   84% 0.00 in WeatherDisplay:10.37 W/m2 CLR
01:58 33.7 °F 29.1 °F 29.97 in WNW 1.2 mph   83% 0.00 in WeatherDisplay:10.37 W/m2 CLR
02:03 33.7 °F 29.1 °F 29.97 in WNW 1.2 mph   83% 0.00 in WeatherDisplay:10.37 W/m2 CLR
02:09 33.8 °F 29.2 °F 29.97 in West 1.2 mph   83% 0.00 in WeatherDisplay:10.37 W/m2 CLR
02:14 33.9 °F 29.0 °F 29.97 in Calm     82% 0.00 in WeatherDisplay:10.37 W/m2 CLR
02:19 33.9 °F 29.0 °F 29.97 in Calm     82% 0.00 in WeatherDisplay:10.37 W/m2 CLR
02:24 33.9 °F 29.3 °F 29.98 in West 2.3 mph 2.3 mph 83% 0.00 in WeatherDisplay:10.37 W/m2 CLR
02:29 34.0 °F 29.1 °F 29.98 in West 1.2 mph 1.2 mph 82% 0.00 in WeatherDisplay:10.37 W/m2 CLR
02:34 34.0 °F 29.1 °F 29.98 in Calm     82% 0.00 in WeatherDisplay:10.37 W/m2 CLR
02:39 33.9 °F 29.0 °F 29.98 in Calm     82% 0.00 in WeatherDisplay:10.37 W/m2 CLR
02:44 33.9 °F 29.0 °F 29.98 in NW 1.0 mph 1.0 mph 82% 0.00 in WeatherDisplay:10.37 W/m2 CLR
02:49 33.9 °F 29.3 °F 29.98 in WNW 1.0 mph   83% 0.00 in WeatherDisplay:10.37 W/m2 CLR
02:54 33.9 °F 29.0 °F 29.98 in Calm     82% 0.00 in WeatherDisplay:10.37 W/m2 CLR
02:59 33.9 °F 29.0 °F 29.98 in WNW 1.2 mph   82% 0.00 in WeatherDisplay:10.37 W/m2 CLR
03:05 33.9 °F 29.0 °F 29.99 in Calm     82% 0.00 in WeatherDisplay:10.37 W/m2 CLR
03:10 33.9 °F 28.9 °F 29.99 in Calm   1.0 mph 82% 0.00 in WeatherDisplay:10.37 W/m2 CLR
03:15 33.8 °F 28.9 °F 29.99 in Calm     82% 0.00 in WeatherDisplay:10.37 W/m2 CLR
03:20 33.8 °F 28.9 °F 29.99 in Calm   1.0 mph 82% 0.00 in WeatherDisplay:10.37 W/m2 CLR
03:25 33.7 °F 29.1 °F 29.99 in Calm     83% 0.00 in WeatherDisplay:10.37 W/m2 CLR
03:30 33.6 °F 29.0 °F 29.99 in Calm     83% 0.00 in WeatherDisplay:10.37 W/m2 CLR
03:35 33.6 °F 29.0 °F 30.00 in Calm     83% 0.00 in WeatherDisplay:10.37 W/m2 CLR
03:40 33.5 °F 28.9 °F 30.00 in Calm     83% 0.00 in WeatherDisplay:10.37 W/m2 CLR
03:45 33.4 °F 29.1 °F 30.00 in WNW 1.2 mph 1.2 mph 84% 0.00 in WeatherDisplay:10.37 W/m2 CLR
03:50 33.3 °F 29.0 °F 30.00 in Calm     84% 0.00 in WeatherDisplay:10.37 W/m2 CLR
03:55 33.2 °F 29.2 °F 30.00 in Calm     85% 0.00 in WeatherDisplay:10.37 W/m2 CLR
04:00 33.1 °F 29.1 °F 30.00 in Calm     85% 0.00 in WeatherDisplay:10.37 W/m2 CLR
04:05 33.1 °F 29.1 °F 30.01 in Calm     85% 0.00 in WeatherDisplay:10.37 W/m2 CLR
04:10 33.0 °F 29.0 °F 30.01 in Calm     85% 0.00 in WeatherDisplay:10.37 W/m2 CLR
04:15 32.9 °F 29.2 °F 30.01 in Calm     86% 0.00 in WeatherDisplay:10.37 W/m2 CLR
04:21 32.8 °F 29.1 °F 30.01 in WNW 1.2 mph   86% 0.00 in WeatherDisplay:10.37 W/m2 CLR
04:26 32.7 °F 29.0 °F 30.01 in Calm     86% 0.00 in WeatherDisplay:10.37 W/m2 CLR
04:31 32.6 °F 28.9 °F 30.01 in Calm     86% 0.00 in WeatherDisplay:10.37 W/m2 CLR
04:36 32.5 °F 28.8 °F 30.01 in Calm     86% 0.00 in WeatherDisplay:10.37 W/m2 CLR
04:41 32.5 °F 29.1 °F 30.01 in Calm     87% 0.00 in WeatherDisplay:10.37 W/m2 CLR
04:46 32.4 °F 28.7 °F 30.01 in Calm     86% 0.00 in WeatherDisplay:10.37 W/m2 CLR
04:51 32.3 °F 28.9 °F 30.01 in Calm     87% 0.00 in WeatherDisplay:10.37 W/m2 CLR
04:56 32.3 °F 28.9 °F 30.01 in Calm     87% 0.00 in WeatherDisplay:10.37 W/m2 CLR
05:01 32.2 °F 28.8 °F 30.02 in WNW 1.2 mph   87% 0.00 in WeatherDisplay:10.37 W/m2 CLR
05:06 32.1 °F 28.7 °F 30.02 in Calm     87% 0.00 in WeatherDisplay:10.37 W/m2 CLR
05:11 32.1 °F 28.7 °F 30.02 in Calm     87% 0.00 in WeatherDisplay:10.37 W/m2 CLR
05:16 32.0 °F 28.8 °F 30.02 in Calm     88% 0.00 in WeatherDisplay:10.37 W/m2 CLR
05:21 32.0 °F 28.8 °F 30.03 in Calm     88% 0.00 in WeatherDisplay:10.37 W/m2 CLR
05:26 32.0 °F 28.8 °F 30.03 in WNW 1.2 mph   88% 0.00 in WeatherDisplay:10.37 W/m2 CLR
05:31 32.0 °F 28.8 °F 30.03 in Calm     88% 0.00 in WeatherDisplay:10.37 W/m2 CLR
05:36 32.0 °F 28.8 °F 30.03 in Calm     88% 0.00 in WeatherDisplay:10.37 W/m2 CLR
05:42 31.9 °F 28.8 °F 30.03 in Calm     88% 0.00 in WeatherDisplay:10.37 W/m2 CLR
05:47 31.8 °F 28.7 °F 30.03 in Calm     88% 0.00 in WeatherDisplay:10.37 W/m2 CLR
05:52 31.8 °F 28.7 °F 30.03 in Calm     88% 0.00 in WeatherDisplay:10.37 W/m2 CLR
05:57 31.7 °F 28.6 °F 30.03 in Calm     88% 0.00 in WeatherDisplay:10.37 W/m2 CLR
06:02 31.7 °F 28.6 °F 30.03 in Calm     88% 0.00 in WeatherDisplay:10.37 W/m2 CLR
06:07 31.6 °F 28.5 °F 30.04 in Calm     88% 0.00 in WeatherDisplay:10.37 W/m2 CLR
06:12 31.5 °F 28.4 °F 30.04 in Calm     88% 0.00 in WeatherDisplay:10.37 W/m2 CLR
06:17 31.4 °F 28.3 °F 30.04 in Calm     88% 0.00 in WeatherDisplay:10.37 W/m2 CLR
06:22 31.3 °F 28.2 °F 30.05 in Calm     88% 0.00 in WeatherDisplay:10.37 W/m2 CLR
06:28 31.2 °F 28.3 °F 30.05 in Calm     89% 0.00 in WeatherDisplay:10.37 W/m2 CLR
06:33 31.2 °F 28.3 °F 30.05 in Calm     89% 0.00 in WeatherDisplay:10.37 W/m2 CLR
06:38 31.2 °F 28.3 °F 30.05 in Calm     89% 0.00 in WeatherDisplay:10.37 W/m2 CLR
06:43 31.2 °F 28.3 °F 30.05 in Calm     89% 0.00 in WeatherDisplay:10.37 W/m2 CLR
06:48 31.1 °F 28.2 °F 30.05 in Calm     89% 0.00 in WeatherDisplay:10.37 W/m2 CLR
06:53 31.1 °F 28.2 °F 30.05 in Calm     89% 0.00 in WeatherDisplay:10.37 W/m2 CLR
06:58 31.2 °F 28.3 °F 30.06 in Calm     89% 0.00 in WeatherDisplay:10.37 W/m2 CLR
07:03 31.2 °F 28.3 °F 30.06 in Calm     89% 0.00 in WeatherDisplay:10.37 W/m2 CLR
07:08 31.2 °F 28.3 °F 30.06 in Calm     89% 0.00 in WeatherDisplay:10.37 W/m2 CLR
07:14 31.2 °F 28.3 °F 30.06 in Calm     89% 0.00 in WeatherDisplay:10.37 W/m2 CLR
07:19 31.1 °F 28.2 °F 30.06 in Calm     89% 0.00 in WeatherDisplay:10.37 W/m2 CLR
07:24 31.1 °F 28.2 °F 30.06 in Calm     89% 0.00 in WeatherDisplay:10.37 W/m2 CLR
07:29 31.1 °F 28.2 °F 30.06 in Calm     89% 0.00 in WeatherDisplay:10.37 W/m2 CLR
07:34 31.0 °F 28.1 °F 30.06 in Calm     89% 0.00 in WeatherDisplay:10.37 W/m2 CLR
07:39 31.0 °F 28.1 °F 30.06 in Calm     89% 0.00 in WeatherDisplay:10.37 W/m2 CLR
07:44 31.0 °F 28.4 °F 30.07 in Calm     90% 0.00 in WeatherDisplay:10.37 W/m2 CLR
07:49 31.0 °F 28.4 °F 30.07 in Calm     90% 0.00 in WeatherDisplay:10.37 W/m2 CLR
07:54 31.0 °F 28.4 °F 30.07 in Calm     90% 0.00 in WeatherDisplay:10.37 W/m2 CLR
07:59 31.0 °F 28.4 °F 30.07 in Calm     90% 0.00 in WeatherDisplay:10.37 W/m2 CLR
08:05 31.1 °F 28.5 °F 30.07 in Calm     90% 0.00 in WeatherDisplay:10.37 W/m2 CLR
08:10 31.2 °F 28.6 °F 30.08 in Calm     90% 0.00 in WeatherDisplay:10.37 W/m2 CLR
08:15 31.3 °F 28.7 °F 30.08 in Calm     90% 0.00 in WeatherDisplay:10.37 W/m2 CLR
08:20 31.5 °F 28.9 °F 30.08 in Calm     90% 0.00 in WeatherDisplay:10.37 W/m2 CLR
08:25 31.8 °F 29.2 °F 30.08 in Calm     90% 0.00 in WeatherDisplay:10.37 W/m2 CLR
08:30 32.0 °F 29.4 °F 30.08 in Calm     90% 0.00 in WeatherDisplay:10.37 W/m2 CLR
08:35 32.3 °F 29.7 °F 30.08 in Calm     90% 0.00 in WeatherDisplay:10.37 W/m2 CLR
08:40 32.6 °F 29.9 °F 30.08 in Calm     90% 0.00 in WeatherDisplay:10.37 W/m2 CLR
08:45 32.9 °F 30.3 °F 30.08 in Calm     90% 0.00 in WeatherDisplay:10.37 W/m2 CLR
08:50 33.2 °F 30.3 °F 30.08 in Calm     89% 0.00 in WeatherDisplay:10.37 W/m2 CLR
08:55 33.6 °F 30.7 °F 30.09 in Calm     89% 0.00 in WeatherDisplay:10.37 W/m2 CLR
09:00 34.0 °F 31.1 °F 30.08 in Calm   1.0 mph 89% 0.00 in WeatherDisplay:10.37 W/m2 CLR
09:05 34.5 °F 31.3 °F 30.09 in Calm     88% 0.00 in WeatherDisplay:10.37 W/m2 CLR
09:10 35.0 °F 31.2 °F 30.09 in Calm     86% 0.00 in WeatherDisplay:10.37 W/m2 CLR
09:15 35.7 °F 31.1 °F 30.09 in Calm   1.0 mph 83% 0.00 in WeatherDisplay:10.37 W/m2 CLR
09:20 36.4 °F 31.5 °F 30.09 in Calm     82% 0.00 in WeatherDisplay:10.37 W/m2 CLR
09:25 36.9 °F 31.3 °F 30.10 in Calm   1.0 mph 80% 0.00 in WeatherDisplay:10.37 W/m2 CLR
09:35 37.9 °F 31.6 °F 30.10 in Calm   1.0 mph 78% 0.00 in WeatherDisplay:10.37 W/m2 CLR
09:40 38.3 °F 31.8 °F 30.10 in Calm   1.0 mph 77% 0.00 in WeatherDisplay:10.37 W/m2 CLR
09:45 38.8 °F 31.9 °F 30.10 in Calm   2.0 mph 76% 0.00 in WeatherDisplay:10.37 W/m2 CLR
09:50 39.2 °F 31.9 °F 30.10 in Calm   2.0 mph 75% 0.00 in WeatherDisplay:10.37 W/m2 CLR
09:55 39.6 °F 32.0 °F 30.11 in Calm   2.0 mph 74% 0.00 in WeatherDisplay:10.37 W/m2 CLR
10:00 40.1 °F 32.1 °F 30.10 in Calm     73% 0.00 in WeatherDisplay:10.37 W/m2 CLR
10:05 40.7 °F 32.4 °F 30.10 in Calm   1.0 mph 72% 0.00 in WeatherDisplay:10.37 W/m2 CLR
10:10 41.4 °F 32.3 °F 30.10 in Calm   1.0 mph 70% 0.00 in WeatherDisplay:10.37 W/m2 CLR
10:15 41.7 °F 32.3 °F 30.10 in Calm     69% 0.00 in WeatherDisplay:10.37 W/m2 CLR
10:20 42.0 °F 33.3 °F 30.11 in Calm   1.0 mph 71% 0.00 in WeatherDisplay:10.37 W/m2 CLR
10:25 42.4 °F 32.9 °F 30.11 in Calm   3.0 mph 69% 0.00 in WeatherDisplay:10.37 W/m2 CLR
10:30 42.7 °F 32.5 °F 30.11 in Calm   2.0 mph 67% 0.00 in WeatherDisplay:10.37 W/m2 CLR
10:35 43.1 °F 33.3 °F 30.11 in Calm   1.0 mph 68% 0.00 in WeatherDisplay:10.37 W/m2 CLR
10:40 43.5 °F 32.5 °F 30.11 in NNW 1.2 mph 1.2 mph 65% 0.00 in WeatherDisplay:10.37 W/m2 CLR
10:45 43.9 °F 32.9 °F 30.11 in Calm   1.0 mph 65% 0.00 in WeatherDisplay:10.37 W/m2 CLR
10:50 44.6 °F 33.1 °F 30.11 in Calm   2.0 mph 64% 0.00 in WeatherDisplay:10.37 W/m2 CLR
10:55 45.4 °F 33.6 °F 30.11 in Calm   2.0 mph 63% 0.00 in WeatherDisplay:10.37 W/m2 CLR
11:00 46.2 °F 33.9 °F 30.11 in Calm   2.0 mph 62% 0.00 in WeatherDisplay:10.37 W/m2 CLR
11:05 46.9 °F 34.1 °F 30.12 in Calm   2.0 mph 61% 0.00 in WeatherDisplay:10.37 W/m2 CLR
11:10 47.8 °F 33.3 °F 30.11 in Calm   2.0 mph 57% 0.00 in WeatherDisplay:10.37 W/m2 CLR
11:15 48.6 °F 34.0 °F 30.11 in Calm   1.0 mph 57% 0.00 in WeatherDisplay:10.37 W/m2 CLR
11:20 49.3 °F 33.8 °F 30.12 in Calm   1.0 mph 55% 0.00 in WeatherDisplay:10.37 W/m2 CLR
11:25 49.9 °F 33.9 °F 30.11 in East 1.0 mph 3.0 mph 54% 0.00 in WeatherDisplay:10.37 W/m2 CLR
11:30 50.1 °F 33.1 °F 30.11 in Calm   3.0 mph 52% 0.00 in WeatherDisplay:10.37 W/m2 CLR
11:35 50.1 °F 33.6 °F 30.11 in ENE 1.2 mph 1.2 mph 53% 0.00 in WeatherDisplay:10.37 W/m2 CLR
11:40 50.5 °F 33.5 °F 30.11 in West 2.3 mph 2.3 mph 52% 0.00 in WeatherDisplay:10.37 W/m2 CLR
11:45 50.8 °F 33.3 °F 30.12 in SW 3.1 mph 3.1 mph 51% 0.00 in WeatherDisplay:10.37 W/m2 CLR
11:55 51.0 °F 33.0 °F 30.12 in West 2.3 mph   50% 0.00 in WeatherDisplay:10.37 W/m2 CLR
12:00 51.2 °F 33.7 °F 30.12 in SW 2.3 mph 2.3 mph 51% 0.00 in WeatherDisplay:10.37 W/m2 CLR
12:05 51.2 °F 33.7 °F 30.12 in West 1.2 mph 1.2 mph 51% 0.00 in WeatherDisplay:10.37 W/m2 CLR
12:10 51.4 °F 31.8 °F 30.12 in SSW 2.3 mph 2.3 mph 47% 0.00 in WeatherDisplay:10.37 W/m2 CLR
12:16 51.4 °F 33.4 °F 30.12 in SE 2.3 mph 2.3 mph 50% 0.00 in WeatherDisplay:10.37 W/m2 CLR
12:21 51.8 °F 34.2 °F 30.11 in NW 1.2 mph 1.2 mph 51% 0.00 in WeatherDisplay:10.37 W/m2 CLR
12:26 52.2 °F 33.1 °F 30.11 in East 1.2 mph 1.2 mph 48% 0.00 in WeatherDisplay:10.37 W/m2 CLR
12:31 52.7 °F 33.0 °F 30.11 in SW 2.0 mph 2.0 mph 47% 0.00 in WeatherDisplay:10.37 W/m2 CLR
12:36 53.2 °F 35.0 °F 30.11 in WNW 1.2 mph 1.2 mph 50% 0.00 in WeatherDisplay:10.37 W/m2 CLR
12:41 53.7 °F 35.0 °F 30.11 in East 2.3 mph 2.3 mph 49% 0.00 in WeatherDisplay:10.37 W/m2 CLR
12:46 54.1 °F 34.3 °F 30.11 in SE 1.2 mph 1.2 mph 47% 0.00 in WeatherDisplay:10.37 W/m2 CLR
12:51 54.3 °F 35.0 °F 30.11 in WNW 1.2 mph   48% 0.00 in WeatherDisplay:10.37 W/m2 CLR
12:56 54.7 °F 35.9 °F 30.11 in North 1.0 mph 1.0 mph 49% 0.00 in WeatherDisplay:10.37 W/m2 CLR
13:01 55.1 °F 36.3 °F 30.11 in Calm     49% 0.00 in WeatherDisplay:10.37 W/m2 CLR
13:06 55.5 °F 35.0 °F 30.10 in SW 5.1 mph 5.1 mph 46% 0.00 in WeatherDisplay:10.37 W/m2 CLR
13:11 55.5 °F 35.0 °F 30.10 in NW 2.3 mph 2.3 mph 46% 0.00 in WeatherDisplay:10.37 W/m2 CLR
13:16 55.7 °F 35.8 °F 30.10 in SE 1.2 mph 1.2 mph 47% 0.00 in WeatherDisplay:10.37 W/m2 CLR
13:22 55.9 °F 35.4 °F 30.10 in WNW 4.6 mph 4.6 mph 46% 0.00 in WeatherDisplay:10.37 W/m2 CLR
13:27 56.2 °F 36.2 °F 30.10 in Calm     47% 0.00 in WeatherDisplay:10.37 W/m2 CLR
13:32 56.5 °F 36.5 °F 30.10 in Calm     47% 0.00 in WeatherDisplay:10.37 W/m2 CLR
13:37 56.9 °F 35.8 °F 30.09 in SSW 1.2 mph 1.2 mph 45% 0.00 in WeatherDisplay:10.37 W/m2 CLR
13:42 57.4 °F 36.2 °F 30.09 in South 3.5 mph 3.5 mph 45% 0.00 in WeatherDisplay:10.37 W/m2 CLR
13:47 57.8 °F 36.0 °F 30.09 in WSW 2.3 mph 2.3 mph 44% 0.00 in WeatherDisplay:10.37 W/m2 CLR
13:52 58.1 °F 35.1 °F 30.09 in South 1.2 mph 1.2 mph 42% 0.00 in WeatherDisplay:10.37 W/m2 CLR
13:57 58.4 °F 37.1 °F 30.09 in NNE 3.5 mph 3.5 mph 45% 0.00 in WeatherDisplay:10.37 W/m2 CLR
14:02 58.9 °F 35.8 °F 30.09 in WSW 1.2 mph 1.2 mph 42% 0.00 in WeatherDisplay:10.37 W/m2 CLR
14:08 59.2 °F 37.9 °F 30.08 in SSW 2.3 mph   45% 0.00 in WeatherDisplay:10.37 W/m2 CLR
14:13 59.9 °F 36.7 °F 30.08 in West 1.2 mph 1.2 mph 42% 0.00 in WeatherDisplay:10.37 W/m2 CLR
14:18 60.3 °F 37.1 °F 30.08 in North 1.2 mph 1.2 mph 42% 0.00 in WeatherDisplay:10.37 W/m2 CLR
14:23 60.3 °F 37.7 °F 30.07 in West 1.2 mph   43% 0.00 in WeatherDisplay:10.37 W/m2 CLR
14:28 60.5 °F 34.7 °F 30.07 in NNW 1.2 mph 1.2 mph 38% 0.00 in WeatherDisplay:10.37 W/m2 CLR
14:33 60.9 °F 37.6 °F 30.07 in NW 1.2 mph 1.2 mph 42% 0.00 in WeatherDisplay:10.37 W/m2 CLR
14:38 61.3 °F 36.8 °F 30.07 in NW 1.2 mph 1.2 mph 40% 0.00 in WeatherDisplay:10.37 W/m2 CLR
14:43 61.3 °F 36.8 °F 30.06 in Calm   0.1 mph 40% 0.00 in WeatherDisplay:10.37 W/m2 CLR
14:48 61.6 °F 40.0 °F 30.06 in Calm     45% 0.00 in WeatherDisplay:10.37 W/m2 CLR
14:54 61.7 °F 37.1 °F 30.06 in NW 1.2 mph 1.2 mph 40% 0.00 in WeatherDisplay:10.37 W/m2 CLR
15:14 62.0 °F 35.4 °F 30.06 in West 3.5 mph 3.5 mph 37% 0.00 in WeatherDisplay:10.37 W/m2 CLR
15:19 62.0 °F 35.4 °F 30.06 in NW 2.3 mph 2.3 mph 37% 0.00 in WeatherDisplay:10.37 W/m2 CLR
15:24 62.1 °F 38.1 °F 30.06 in West 1.2 mph 1.2 mph 41% 0.00 in WeatherDisplay:10.37 W/m2 CLR
15:29 62.2 °F 35.6 °F 30.06 in West 2.3 mph 2.3 mph 37% 0.00 in WeatherDisplay:10.37 W/m2 CLR
15:34 62.2 °F 35.6 °F 30.06 in West 1.2 mph   37% 0.00 in WeatherDisplay:10.37 W/m2 CLR
15:39 62.1 °F 36.2 °F 30.06 in Calm     38% 0.00 in WeatherDisplay:10.37 W/m2 CLR
15:44 62.1 °F 36.8 °F 30.06 in WSW 1.2 mph 1.2 mph 39% 0.00 in WeatherDisplay:10.37 W/m2 CLR
16:00 61.9 °F 36.7 °F 30.05 in West 1.0 mph 5.0 mph 39% 0.00 in WeatherDisplay:10.37 W/m2 CLR
16:05 61.9 °F 36.7 °F 30.05 in Calm   1.0 mph 39% 0.00 in WeatherDisplay:10.37 W/m2 CLR
16:10 61.8 °F 38.4 °F 30.05 in Calm     42% 0.00 in WeatherDisplay:10.37 W/m2 CLR
16:14 61.8 °F 37.8 °F 30.05 in Calm     41% 0.00 in WeatherDisplay:10.37 W/m2 CLR
16:20 61.8 °F 39.1 °F 30.05 in Calm   1.0 mph 43% 0.00 in WeatherDisplay:10.37 W/m2 CLR
16:25 61.6 °F 39.5 °F 30.05 in Calm   1.0 mph 44% 0.00 in WeatherDisplay:10.37 W/m2 CLR
16:30 61.7 °F 38.3 °F 30.05 in West 1.0 mph 3.0 mph 42% 0.00 in WeatherDisplay:10.37 W/m2 CLR
16:35 61.6 °F 40.0 °F 30.05 in Calm   1.0 mph 45% 0.00 in WeatherDisplay:10.37 W/m2 CLR
16:40 61.5 °F 38.8 °F 30.05 in Calm     43% 0.00 in WeatherDisplay:10.37 W/m2 CLR
16:45 61.5 °F 39.9 °F 30.05 in Calm   1.0 mph 45% 0.00 in WeatherDisplay:10.37 W/m2 CLR
16:50 61.4 °F 41.5 °F 30.05 in Calm     48% 0.00 in WeatherDisplay:10.37 W/m2 CLR
16:55 61.0 °F 41.2 °F 30.05 in Calm   1.0 mph 48% 0.00 in WeatherDisplay:10.37 W/m2 CLR
17:00 60.9 °F 41.6 °F 30.05 in Calm   1.0 mph 49% 0.00 in WeatherDisplay:10.37 W/m2 CLR
17:05 60.6 °F 41.4 °F 30.05 in Calm   1.0 mph 49% 0.00 in WeatherDisplay:10.37 W/m2 CLR
17:10 60.3 °F 42.1 °F 30.05 in Calm   1.0 mph 51% 0.00 in WeatherDisplay:10.37 W/m2 CLR
17:15 59.9 °F 41.7 °F 30.05 in Calm   1.0 mph 51% 0.00 in WeatherDisplay:10.37 W/m2 CLR
17:20 59.7 °F 42.1 °F 30.05 in Calm   1.0 mph 52% 0.00 in WeatherDisplay:10.37 W/m2 CLR
17:25 59.5 °F 42.4 °F 30.05 in Calm   1.0 mph 53% 0.00 in WeatherDisplay:10.37 W/m2 CLR
17:30 59.2 °F 42.1 °F 30.05 in Calm   1.0 mph 53% 0.00 in WeatherDisplay:10.37 W/m2 CLR
17:35 59.0 °F 42.3 °F 30.05 in Calm   1.0 mph 54% 0.00 in WeatherDisplay:10.37 W/m2 CLR
17:40 58.7 °F 42.1 °F 30.05 in Calm   1.0 mph 54% 0.00 in WeatherDisplay:10.37 W/m2 CLR
17:45 58.5 °F 42.3 °F 30.06 in Calm   1.0 mph 55% 0.00 in WeatherDisplay:10.37 W/m2 CLR
17:50 58.2 °F 42.6 °F 30.06 in Calm     56% 0.00 in WeatherDisplay:10.37 W/m2 CLR
17:55 57.9 °F 41.8 °F 30.06 in Calm     55% 0.00 in WeatherDisplay:10.37 W/m2 CLR
18:00 57.8 °F 42.7 °F 30.06 in East 1.2 mph   57% 0.00 in WeatherDisplay:10.37 W/m2 CLR
18:05 57.5 °F 41.9 °F 30.06 in East 1.2 mph   56% 0.00 in WeatherDisplay:10.37 W/m2 CLR
18:10 57.3 °F 42.2 °F 30.06 in Calm     57% 0.00 in WeatherDisplay:10.37 W/m2 CLR
18:15 57.2 °F 42.1 °F 30.06 in Calm     57% 0.00 in WeatherDisplay:10.37 W/m2 CLR
18:20 57.0 °F 42.4 °F 30.06 in Calm     58% 0.00 in WeatherDisplay:10.37 W/m2 CLR
18:25 56.8 °F 43.1 °F 30.06 in Calm     60% 0.00 in WeatherDisplay:10.37 W/m2 CLR
18:31 56.5 °F 42.8 °F 30.06 in Calm     60% 0.00 in WeatherDisplay:10.37 W/m2 CLR
18:36 56.3 °F 43.4 °F 30.06 in Calm     62% 0.00 in WeatherDisplay:10.37 W/m2 CLR
18:41 55.9 °F 43.5 °F 30.06 in Calm     63% 0.00 in WeatherDisplay:10.37 W/m2 CLR
18:46 55.5 °F 43.5 °F 30.06 in Calm     64% 0.00 in WeatherDisplay:10.37 W/m2 CLR
18:51 55.2 °F 43.2 °F 30.07 in Calm     64% 0.00 in WeatherDisplay:10.37 W/m2 CLR
18:56 54.7 °F 43.2 °F 30.07 in Calm     65% 0.00 in WeatherDisplay:10.37 W/m2 CLR
19:01 54.3 °F 43.6 °F 30.07 in Calm     67% 0.00 in WeatherDisplay:10.37 W/m2 CLR
19:06 53.9 °F 43.2 °F 30.07 in Calm     67% 0.00 in WeatherDisplay:10.37 W/m2 CLR
19:11 53.9 °F 43.6 °F 30.07 in Calm     68% 0.00 in WeatherDisplay:10.37 W/m2 CLR
19:16 53.7 °F 43.0 °F 30.07 in Calm     67% 0.00 in WeatherDisplay:10.37 W/m2 CLR
19:22 53.3 °F 43.0 °F 30.07 in Calm     68% 0.00 in WeatherDisplay:10.37 W/m2 CLR
19:27 53.0 °F 43.1 °F 30.08 in Calm     69% 0.00 in WeatherDisplay:10.37 W/m2 CLR
19:32 52.8 °F 42.9 °F 30.08 in Calm     69% 0.00 in WeatherDisplay:10.37 W/m2 CLR
19:37 52.5 °F 43.0 °F 30.08 in Calm     70% 0.00 in WeatherDisplay:10.37 W/m2 CLR
19:42 52.2 °F 43.1 °F 30.08 in Calm     71% 0.00 in WeatherDisplay:10.37 W/m2 CLR
19:47 52.0 °F 42.9 °F 30.08 in Calm     71% 0.00 in WeatherDisplay:10.37 W/m2 CLR
19:52 51.7 °F 43.0 °F 30.08 in Calm     72% 0.00 in WeatherDisplay:10.37 W/m2 CLR
19:57 51.4 °F 43.0 °F 30.08 in Calm     73% 0.00 in WeatherDisplay:10.37 W/m2 CLR
20:02 51.2 °F 42.8 °F 30.08 in Calm     73% 0.00 in WeatherDisplay:10.37 W/m2 CLR
20:07 51.0 °F 43.4 °F 30.09 in Calm     75% 0.00 in WeatherDisplay:10.37 W/m2 CLR
20:12 50.8 °F 43.2 °F 30.09 in Calm     75% 0.00 in WeatherDisplay:10.37 W/m2 CLR
20:18 50.7 °F 43.4 °F 30.09 in Calm     76% 0.00 in WeatherDisplay:10.37 W/m2 CLR
20:23 50.6 °F 43.3 °F 30.09 in Calm     76% 0.00 in WeatherDisplay:10.37 W/m2 CLR
20:28 50.5 °F 43.2 °F 30.09 in Calm     76% 0.00 in WeatherDisplay:10.37 W/m2 CLR
20:33 50.5 °F 43.2 °F 30.09 in Calm     76% 0.00 in WeatherDisplay:10.37 W/m2 CLR
20:38 50.4 °F 43.1 °F 30.09 in Calm     76% 0.00 in WeatherDisplay:10.37 W/m2 CLR
20:43 50.3 °F 43.4 °F 30.09 in Calm     77% 0.00 in WeatherDisplay:10.37 W/m2 CLR
20:48 50.2 °F 43.6 °F 30.09 in Calm     78% 0.00 in WeatherDisplay:10.37 W/m2 CLR
20:53 50.3 °F 43.4 °F 30.09 in Calm     77% 0.00 in WeatherDisplay:10.37 W/m2 CLR
20:59 50.8 °F 43.5 °F 30.09 in Calm     76% 0.00 in WeatherDisplay:10.37 W/m2 CLR
21:04 51.1 °F 43.4 °F 30.09 in Calm     75% 0.00 in WeatherDisplay:10.37 W/m2 CLR
21:09 51.3 °F 43.6 °F 30.09 in Calm     75% 0.00 in WeatherDisplay:10.37 W/m2 CLR
21:14 51.3 °F 43.3 °F 30.09 in Calm     74% 0.00 in WeatherDisplay:10.37 W/m2 CLR
21:19 51.4 °F 43.0 °F 30.09 in Calm     73% 0.00 in WeatherDisplay:10.37 W/m2 CLR
21:24 51.3 °F 43.3 °F 30.10 in Calm     74% 0.00 in WeatherDisplay:10.37 W/m2 CLR
21:29 51.1 °F 43.4 °F 30.10 in Calm     75% 0.00 in WeatherDisplay:10.37 W/m2 CLR
21:34 50.9 °F 43.3 °F 30.10 in Calm     75% 0.00 in WeatherDisplay:10.37 W/m2 CLR
21:39 50.7 °F 43.4 °F 30.10 in Calm     76% 0.00 in WeatherDisplay:10.37 W/m2 CLR
21:44 50.5 °F 43.2 °F 30.10 in Calm     76% 0.00 in WeatherDisplay:10.37 W/m2 CLR
21:50 50.4 °F 43.5 °F 30.10 in Calm     77% 0.00 in WeatherDisplay:10.37 W/m2 CLR
21:55 50.4 °F 43.5 °F 30.10 in Calm     77% 0.00 in WeatherDisplay:10.37 W/m2 CLR
22:00 50.5 °F 43.6 °F 30.10 in Calm     77% 0.00 in WeatherDisplay:10.37 W/m2 CLR
22:05 50.5 °F 43.6 °F 30.10 in Calm     77% 0.00 in WeatherDisplay:10.37 W/m2 CLR
22:10 50.5 °F 43.2 °F 30.10 in Calm     76% 0.00 in WeatherDisplay:10.37 W/m2 CLR
22:15 50.6 °F 43.3 °F 30.10 in Calm     76% 0.00 in WeatherDisplay:10.37 W/m2 CLR
22:20 50.5 °F 43.2 °F 30.10 in Calm     76% 0.00 in WeatherDisplay:10.37 W/m2 CLR
22:25 50.4 °F 43.5 °F 30.11 in Calm     77% 0.00 in WeatherDisplay:10.37 W/m2 CLR
22:30 50.3 °F 43.4 °F 30.10 in Calm     77% 0.00 in WeatherDisplay:10.37 W/m2 CLR
22:35 50.1 °F 43.2 °F 30.11 in Calm     77% 0.00 in WeatherDisplay:10.37 W/m2 CLR
22:40 50.1 °F 43.2 °F 30.11 in Calm     77% 0.00 in WeatherDisplay:10.37 W/m2 CLR
22:45 50.1 °F 43.2 °F 30.11 in Calm     77% 0.00 in WeatherDisplay:10.37 W/m2 CLR
22:50 50.1 °F 43.2 °F 30.11 in Calm     77% 0.00 in WeatherDisplay:10.37 W/m2 CLR
22:55 50.1 °F 43.2 °F 30.11 in Calm     77% 0.00 in WeatherDisplay:10.37 W/m2 CLR
23:00 50.1 °F 43.2 °F 30.11 in Calm     77% 0.00 in WeatherDisplay:10.37 W/m2 CLR
23:05 49.9 °F 43.3 °F 30.11 in Calm     78% 0.00 in WeatherDisplay:10.37 W/m2 CLR
23:10 49.7 °F 43.1 °F 30.11 in Calm     78% 0.00 in WeatherDisplay:10.37 W/m2 CLR
23:16 49.6 °F 43.0 °F 30.11 in Calm     78% 0.00 in WeatherDisplay:10.37 W/m2 CLR
23:22 49.4 °F 43.2 °F 30.11 in Calm     79% 0.00 in WeatherDisplay:10.37 W/m2 CLR
23:25 49.3 °F 43.1 °F 30.11 in Calm     79% 0.00 in WeatherDisplay:10.37 W/m2 CLR
23:27 49.2 °F 43.0 °F 30.11 in Calm     79% 0.00 in WeatherDisplay:10.37 W/m2 CLR
23:29 49.1 °F 43.2 °F 30.11 in Calm     80% 0.00 in WeatherDisplay:10.37 W/m2 CLR
23:31 49.1 °F 43.2 °F 30.11 in Calm     80% 0.00 in WeatherDisplay:10.37 W/m2 CLR
23:36 48.9 °F 43.0 °F 30.11 in Calm     80% 0.00 in WeatherDisplay:10.37 W/m2 CLR
23:41 48.9 °F 43.3 °F 30.12 in Calm     81% 0.00 in WeatherDisplay:10.37 W/m2 CLR
23:46 48.8 °F 43.2 °F 30.12 in Calm     81% 0.00 in WeatherDisplay:10.37 W/m2 CLR
23:51 48.8 °F 43.2 °F 30.12 in Calm     81% 0.00 in WeatherDisplay:10.37 W/m2 CLR
23:56 48.7 °F 43.1 °F 30.12 in Calm     81% 0.00 in WeatherDisplay:10.37 W/m2 CLR
Piedmont Bend
Compliments of Weather Underground - 4 mb